| time (UTC) | temp F | wind direction | speed MPH | gust MPH | rain 1hr in | rain 24hr in | rain mn in | humidity % | barometer mb |
| 20260904221047 | 58 | 219 | 1.0 | 5.0 | 0.00 | 0.03 | 0.03 | 82 | 1020.6 |
| 20260904220547 | 58 | 214 | 2.0 | 5.0 | 0.00 | 0.03 | 0.03 | 81 | 1020.6 |
| 20260904220122 | 58 | 217 | 3.0 | 6.0 | 0.00 | 0.03 | 0.03 | 81 | 1020.5 |
| 20260904215543 | 58 | 215 | 3.0 | 6.0 | 0.00 | 0.03 | 0.03 | 81 | 1020.5 |
| 20260904215043 | 58 | 207 | 2.0 | 5.0 | 0.00 | 0.03 | 0.03 | 80 | 1020.6 |
| 20260904214558 | 58 | 216 | 2.0 | 6.0 | 0.00 | 0.03 | 0.03 | 80 | 1020.6 |
| 20260904214043 | 59 | 211 | 2.0 | 6.0 | 0.00 | 0.03 | 0.03 | 80 | 1020.5 |
| 20260904213543 | 59 | 215 | 1.0 | 7.0 | 0.00 | 0.03 | 0.03 | 79 | 1020.6 |
| 20260904213102 | 59 | 252 | 2.0 | 8.0 | 0.00 | 0.03 | 0.03 | 79 | 1020.6 |
| 20260904212545 | 59 | 253 | 3.0 | 8.0 | 0.00 | 0.03 | 0.03 | 79 | 1020.4 |
| 20260904212043 | 59 | 240 | 2.0 | 7.0 | 0.00 | 0.03 | 0.03 | 79 | 1020.4 |
| 20260904211608 | 59 | 235 | 3.0 | 7.0 | 0.00 | 0.03 | 0.03 | 78 | 1020.3 |
| 20260904211044 | 60 | 275 | 3.0 | 8.0 | 0.00 | 0.03 | 0.03 | 78 | 1020.4 |
| 20260904210544 | 60 | 238 | 3.0 | 8.0 | 0.00 | 0.03 | 0.03 | 78 | 1020.4 |
| 20260904205545 | 60 | 244 | 3.0 | 8.0 | 0.00 | 0.03 | 0.03 | 78 | 1020.2 |
| 20260904205044 | 60 | 270 | 4.0 | 7.0 | 0.00 | 0.03 | 0.03 | 78 | 1020.2 |
| 20260904204603 | 60 | 261 | 3.0 | 9.0 | 0.00 | 0.03 | 0.03 | 78 | 1020.3 |
| 20260904204043 | 60 | 263 | 2.0 | 9.0 | 0.00 | 0.03 | 0.03 | 78 | 1020.3 |
| 20260904203544 | 60 | 248 | 3.0 | 7.0 | 0.00 | 0.03 | 0.03 | 78 | 1020.2 |
| 20260904203105 | 60 | 243 | 3.0 | 7.0 | 0.00 | 0.03 | 0.03 | 78 | 1020.2 |
| 20260904202546 | 60 | 247 | 2.0 | 7.0 | 0.00 | 0.03 | 0.03 | 78 | 1020.3 |
| 20260904202042 | 61 | 263 | 3.0 | 7.0 | 0.00 | 0.03 | 0.03 | 77 | 1020.3 |
| 20260904201601 | 61 | 249 | 2.0 | 7.0 | 0.00 | 0.03 | 0.03 | 77 | 1020.3 |
| 20260904201043 | 61 | 237 | 3.0 | 7.0 | 0.00 | 0.03 | 0.03 | 77 | 1020.3 |
| 20260904200543 | 61 | 278 | 3.0 | 6.0 | 0.00 | 0.03 | 0.03 | 77 | 1020.2 |
| 20260904200110 | 61 | 233 | 3.0 | 8.0 | 0.00 | 0.03 | 0.03 | 77 | 1020.3 |
| 20260904195545 | 61 | 247 | 3.0 | 8.0 | 0.00 | 0.03 | 0.03 | 76 | 1020.2 |
| 20260904195043 | 61 | 257 | 3.0 | 6.0 | 0.00 | 0.03 | 0.03 | 76 | 1020.1 |
| 20260904194610 | 62 | 247 | 2.0 | 6.0 | 0.00 | 0.03 | 0.03 | 76 | 1020.1 |
| 20260904194044 | 62 | 259 | 2.0 | 6.0 | 0.00 | 0.03 | 0.03 | 75 | 1020.0 |
| 20260904193544 | 62 | 256 | 2.0 | 7.0 | 0.00 | 0.03 | 0.03 | 75 | 1020.0 |
| 20260904193100 | 62 | 252 | 2.0 | 8.0 | 0.00 | 0.03 | 0.03 | 75 | 1019.8 |
| 20260904192544 | 62 | 258 | 3.0 | 8.0 | 0.00 | 0.03 | 0.03 | 75 | 1019.7 |
| 20260904192044 | 62 | 300 | 2.0 | 7.0 | 0.00 | 0.03 | 0.03 | 74 | 1019.5 |
| 20260904191602 | 62 | 238 | 3.0 | 10.0 | 0.00 | 0.03 | 0.03 | 74 | 1019.3 |
| 20260904191045 | 63 | 246 | 3.0 | 10.0 | 0.00 | 0.03 | 0.03 | 74 | 1019.2 |
| 20260904190546 | 63 | 254 | 4.0 | 10.0 | 0.00 | 0.03 | 0.03 | 73 | 1019.1 |
| 20260904190109 | 63 | 253 | 5.0 | 9.0 | 0.00 | 0.03 | 0.03 | 73 | 1018.9 |
| 20260904185545 | 63 | 236 | 3.0 | 10.0 | 0.00 | 0.03 | 0.03 | 72 | 1018.9 |
| 20260904185043 | 63 | 244 | 4.0 | 10.0 | 0.00 | 0.03 | 0.03 | 72 | 1019.0 |
| 20260904184613 | 63 | 227 | 3.0 | 10.0 | 0.00 | 0.03 | 0.03 | 72 | 1018.8 |
| 20260904184045 | 64 | 271 | 5.0 | 12.0 | 0.00 | 0.03 | 0.03 | 71 | 1018.7 |
| 20260904183543 | 64 | 227 | 4.0 | 16.0 | 0.00 | 0.03 | 0.03 | 71 | 1018.6 |
| 20260904183106 | 64 | 273 | 6.0 | 16.0 | 0.00 | 0.03 | 0.03 | 70 | 1018.5 |
| 20260904182545 | 64 | 241 | 7.0 | 14.0 | 0.00 | 0.03 | 0.03 | 70 | 1018.4 |
| 20260904182043 | 64 | 248 | 5.0 | 14.0 | 0.00 | 0.03 | 0.03 | 69 | 1018.5 |
| 20260904181603 | 64 | 234 | 6.0 | 12.0 | 0.00 | 0.03 | 0.03 | 68 | 1018.3 |
| 20260904181044 | 64 | 227 | 3.0 | 12.0 | 0.00 | 0.03 | 0.03 | 68 | 1018.2 |
| 20260904180543 | 65 | 257 | 4.0 | 12.0 | 0.00 | 0.03 | 0.03 | 68 | 1018.1 |
| 20260904180117 | 64 | 242 | 3.0 | 10.0 | 0.00 | 0.03 | 0.03 | 68 | 1018.3 |
| 20260904175542 | 64 | 296 | 4.0 | 12.0 | 0.00 | 0.03 | 0.03 | 67 | 1018.3 |
| 20260904175044 | 64 | 268 | 5.0 | 13.0 | 0.00 | 0.03 | 0.03 | 67 | 1018.2 |
| 20260904174622 | 65 | 286 | 7.0 | 13.0 | 0.00 | 0.03 | 0.03 | 67 | 1018.1 |
| 20260904174044 | 65 | 228 | 6.0 | 13.0 | 0.00 | 0.03 | 0.03 | 67 | 1017.9 |
| 20260904173543 | 65 | 299 | 5.0 | 13.0 | 0.00 | 0.03 | 0.03 | 67 | 1017.9 |
| 20260904173108 | 65 | 239 | 6.0 | 12.0 | 0.00 | 0.03 | 0.03 | 66 | 1017.9 |
| 20260904172543 | 65 | 278 | 5.0 | 11.0 | 0.00 | 0.03 | 0.03 | 66 | 1018.0 |
| 20260904172044 | 65 | 231 | 4.0 | 10.0 | 0.00 | 0.03 | 0.03 | 66 | 1017.8 |
| 20260904171606 | 65 | 244 | 5.0 | 14.0 | 0.00 | 0.03 | 0.03 | 66 | 1017.7 |
| 20260904171043 | 65 | 306 | 5.0 | 14.0 | 0.00 | 0.03 | 0.03 | 66 | 1017.9 |
| 20260904170542 | 65 | 258 | 5.0 | 15.0 | 0.00 | 0.03 | 0.03 | 66 | 1017.8 |
| 20260904170106 | 65 | 260 | 5.0 | 15.0 | 0.00 | 0.03 | 0.03 | 66 | 1017.8 |
| 20260904165542 | 65 | 251 | 6.0 | 13.0 | 0.00 | 0.03 | 0.03 | 66 | 1017.7 |
| 20260904165044 | 65 | 266 | 5.0 | 15.0 | 0.00 | 0.03 | 0.03 | 66 | 1017.7 |
| 20260904164603 | 65 | 235 | 7.0 | 15.0 | 0.00 | 0.03 | 0.03 | 67 | 1017.6 |
| 20260904164042 | 66 | 279 | 8.0 | 14.0 | 0.00 | 0.03 | 0.03 | 67 | 1017.7 |
| 20260904163543 | 66 | 244 | 7.0 | 13.0 | 0.00 | 0.03 | 0.03 | 67 | 1017.6 |
| 20260904163105 | 66 | 234 | 5.0 | 13.0 | 0.00 | 0.03 | 0.03 | 67 | 1017.6 |
| 20260904162543 | 66 | 245 | 7.0 | 13.0 | 0.00 | 0.03 | 0.03 | 66 | 1017.6 |
| 20260904162042 | 66 | 270 | 7.0 | 13.0 | 0.00 | 0.03 | 0.03 | 66 | 1017.5 |
| 20260904161609 | 66 | 308 | 4.0 | 15.0 | 0.00 | 0.03 | 0.03 | 66 | 1017.2 |
| 20260904161043 | 66 | 279 | 7.0 | 15.0 | 0.00 | 0.03 | 0.03 | 65 | 1017.2 |
| 20260904160543 | 66 | 225 | 7.0 | 15.0 | 0.00 | 0.03 | 0.03 | 64 | 1017.2 |
| 20260904160109 | 66 | 239 | 7.0 | 16.0 | 0.00 | 0.03 | 0.03 | 63 | 1017.3 |
| 20260904155545 | 66 | 250 | 7.0 | 16.0 | 0.00 | 0.03 | 0.03 | 63 | 1017.2 |
| 20260904155044 | 66 | 236 | 6.0 | 12.0 | 0.00 | 0.03 | 0.03 | 63 | 1017.2 |
| 20260904154604 | 66 | 246 | 6.0 | 12.0 | 0.00 | 0.03 | 0.03 | 63 | 1017.2 |
| 20260904154043 | 66 | 304 | 3.0 | 12.0 | 0.00 | 0.03 | 0.03 | 63 | 1017.3 |
| 20260904153543 | 66 | 232 | 6.0 | 20.0 | 0.00 | 0.03 | 0.03 | 62 | 1017.2 |
| 20260904153130 | 66 | 248 | 7.0 | 20.0 | 0.00 | 0.03 | 0.03 | 62 | 1017.3 |
| 20260904152543 | 67 | 285 | 4.0 | 14.0 | 0.00 | 0.03 | 0.03 | 61 | 1017.4 |
| 20260904152043 | 67 | 306 | 8.0 | 14.0 | 0.00 | 0.03 | 0.03 | 61 | 1017.2 |
| 20260904151607 | 67 | 274 | 5.0 | 16.0 | 0.00 | 0.03 | 0.03 | 61 | 1017.2 |
| 20260904151043 | 67 | 251 | 9.0 | 16.0 | 0.00 | 0.03 | 0.03 | 61 | 1017.1 |
| 20260904150543 | 67 | 267 | 8.0 | 16.0 | 0.00 | 0.03 | 0.03 | 62 | 1017.4 |
| 20260904150106 | 67 | 216 | 8.0 | 14.0 | 0.00 | 0.03 | 0.03 | 63 | 1017.1 |
| 20260904145544 | 67 | 306 | 6.0 | 16.0 | 0.00 | 0.03 | 0.03 | 63 | 1017.1 |
| 20260904145043 | 67 | 308 | 7.0 | 16.0 | 0.00 | 0.03 | 0.03 | 63 | 1017.0 |
| 20260904144603 | 67 | 299 | 5.0 | 13.0 | 0.00 | 0.03 | 0.03 | 64 | 1017.0 |
| 20260904144044 | 67 | 286 | 6.0 | 13.0 | 0.00 | 0.03 | 0.03 | 65 | 1016.8 |
| 20260904143543 | 67 | 284 | 5.0 | 12.0 | 0.00 | 0.03 | 0.03 | 66 | 1017.1 |
| 20260904143112 | 67 | 273 | 5.0 | 13.0 | 0.00 | 0.03 | 0.03 | 66 | 1016.8 |
| 20260904142543 | 67 | 302 | 7.0 | 13.0 | 0.00 | 0.03 | 0.03 | 65 | 1016.8 |
| 20260904142044 | 67 | 286 | 6.0 | 13.0 | 0.00 | 0.03 | 0.03 | 64 | 1016.8 |
| 20260904141606 | 67 | 268 | 6.0 | 13.0 | 0.00 | 0.03 | 0.03 | 67 | 1016.8 |
| 20260904141043 | 67 | 236 | 5.0 | 12.0 | 0.00 | 0.03 | 0.03 | 69 | 1016.7 |
| 20260904140542 | 67 | 218 | 7.0 | 12.0 | 0.00 | 0.03 | 0.03 | 69 | 1016.8 |
| 20260904140105 | 67 | 238 | 3.0 | 16.0 | 0.00 | 0.03 | 0.03 | 70 | 1016.6 |
| 20260904135543 | 67 | 307 | 5.0 | 16.0 | 0.00 | 0.03 | 0.03 | 69 | 1016.7 |
| 20260904135043 | 66 | 258 | 7.0 | 13.0 | 0.00 | 0.03 | 0.03 | 69 | 1016.6 |
| 20260904134609 | 67 | 313 | 5.0 | 12.0 | 0.00 | 0.03 | 0.03 | 70 | 1016.8 |
| 20260904134044 | 67 | 296 | 5.0 | 14.0 | 0.00 | 0.03 | 0.03 | 70 | 1016.6 |
| 20260904133543 | 67 | 294 | 7.0 | 15.0 | 0.00 | 0.03 | 0.03 | 69 | 1016.6 |
| 20260904133105 | 66 | 272 | 7.0 | 15.0 | 0.00 | 0.03 | 0.03 | 69 | 1016.7 |
| 20260904132543 | 66 | 236 | 5.0 | 11.0 | 0.00 | 0.03 | 0.03 | 71 | 1016.6 |
| 20260904132042 | 66 | 256 | 6.0 | 20.0 | 0.00 | 0.03 | 0.03 | 71 | 1016.7 |
| 20260904131559 | 66 | 307 | 10.0 | 20.0 | 0.00 | 0.03 | 0.03 | 71 | 1016.5 |
| 20260904131043 | 66 | 289 | 8.0 | 17.0 | 0.00 | 0.03 | 0.03 | 71 | 1016.7 |
| 20260904130543 | 66 | 271 | 9.0 | 17.0 | 0.00 | 0.03 | 0.03 | 70 | 1016.7 |
| 20260904130103 | 66 | 236 | 8.0 | 16.0 | 0.00 | 0.03 | 0.03 | 71 | 1016.6 |
| 20260904125543 | 66 | 251 | 8.0 | 15.0 | 0.00 | 0.03 | 0.03 | 71 | 1016.4 |
| 20260904125045 | 66 | 221 | 5.0 | 16.0 | 0.00 | 0.03 | 0.03 | 72 | 1016.5 |
| 20260904124556 | 66 | 202 | 8.0 | 16.0 | 0.00 | 0.03 | 0.03 | 71 | 1016.2 |
| 20260904124042 | 66 | 271 | 7.0 | 16.0 | 0.00 | 0.03 | 0.03 | 71 | 1016.4 |
| 20260904123543 | 66 | 240 | 8.0 | 14.0 | 0.00 | 0.03 | 0.03 | 72 | 1016.2 |
| 20260904123103 | 66 | 211 | 6.0 | 20.0 | 0.00 | 0.03 | 0.03 | 72 | 1016.2 |
| 20260904122543 | 66 | 273 | 11.0 | 20.0 | 0.00 | 0.03 | 0.03 | 72 | 1015.9 |
| 20260904122043 | 66 | 235 | 7.0 | 18.0 | 0.00 | 0.03 | 0.03 | 72 | 1016.0 |
| 20260904121559 | 67 | 346 | 5.0 | 19.0 | 0.00 | 0.03 | 0.03 | 73 | 1016.0 |
| 20260904121044 | 67 | 256 | 10.0 | 19.0 | 0.00 | 0.03 | 0.03 | 72 | 1015.9 |
| 20260904120543 | 67 | 261 | 8.0 | 19.0 | 0.00 | 0.03 | 0.03 | 71 | 1015.9 |
| 20260904120109 | 67 | 250 | 8.0 | 15.0 | 0.00 | 0.03 | 0.03 | 73 | 1015.9 |
| 20260904115543 | 67 | 315 | 7.0 | 15.0 | 0.00 | 0.03 | 0.03 | 73 | 1015.9 |
| 20260904115044 | 67 | 252 | 7.0 | 18.0 | 0.00 | 0.03 | 0.03 | 72 | 1015.7 |
| 20260904114600 | 67 | 286 | 11.0 | 24.0 | 0.00 | 0.03 | 0.03 | 72 | 1015.7 |
| 20260904114044 | 67 | 276 | 6.0 | 24.0 | 0.00 | 0.03 | 0.03 | 73 | 1015.6 |
| 20260904113544 | 67 | 285 | 10.0 | 24.0 | 0.00 | 0.03 | 0.03 | 73 | 1015.4 |
| 20260904113101 | 67 | 296 | 9.0 | 17.0 | 0.00 | 0.03 | 0.03 | 74 | 1015.5 |
| 20260904112545 | 67 | 240 | 5.0 | 13.0 | 0.00 | 0.03 | 0.03 | 75 | 1015.3 |
| 20260904112045 | 67 | 257 | 6.0 | 14.0 | 0.00 | 0.03 | 0.03 | 76 | 1015.4 |
| 20260904111605 | 66 | 254 | 6.0 | 14.0 | 0.00 | 0.03 | 0.03 | 77 | 1015.2 |
| 20260904111043 | 66 | 296 | 8.0 | 18.0 | 0.00 | 0.03 | 0.03 | 77 | 1015.2 |
| 20260904110543 | 66 | 312 | 7.0 | 18.0 | 0.00 | 0.03 | 0.03 | 77 | 1015.2 |
| 20260904105543 | 66 | 311 | 6.0 | 13.0 | 0.00 | 0.03 | 0.03 | 79 | 1015.3 |
| 20260904105044 | 66 | 276 | 7.0 | 15.0 | 0.00 | 0.03 | 0.03 | 78 | 1015.2 |
| 20260904104605 | 66 | 335 | 6.0 | 15.0 | 0.00 | 0.03 | 0.03 | 79 | 1015.1 |
| 20260904104042 | 66 | 275 | 8.0 | 21.0 | 0.00 | 0.03 | 0.03 | 79 | 1015.2 |
| 20260904103543 | 66 | 257 | 8.0 | 21.0 | 0.00 | 0.03 | 0.03 | 80 | 1015.3 |
| 20260904103104 | 66 | 283 | 10.0 | 21.0 | 0.00 | 0.03 | 0.03 | 79 | 1015.3 |
| 20260904102545 | 66 | 281 | 7.0 | 17.0 | 0.00 | 0.03 | 0.03 | 81 | 1015.2 |
| 20260904102044 | 66 | 212 | 6.0 | 16.0 | 0.00 | 0.03 | 0.03 | 81 | 1015.2 |
| 20260904101559 | 66 | 312 | 8.0 | 16.0 | 0.00 | 0.03 | 0.03 | 82 | 1015.0 |
| 20260904101044 | 66 | 311 | 6.0 | 15.0 | 0.00 | 0.03 | 0.03 | 83 | 1015.1 |
| 20260904100544 | 66 | 288 | 8.0 | 18.0 | 0.00 | 0.03 | 0.03 | 83 | 1015.0 |
| 20260904100103 | 66 | 283 | 9.0 | 18.0 | 0.00 | 0.03 | 0.03 | 84 | 1014.8 |
| 20260904095544 | 66 | 283 | 4.0 | 11.0 | 0.00 | 0.03 | 0.03 | 85 | 1014.6 |
| 20260904095045 | 66 | 273 | 4.0 | 14.0 | 0.00 | 0.03 | 0.03 | 86 | 1014.5 |
| 20260904094611 | 66 | 250 | 4.0 | 14.0 | 0.00 | 0.03 | 0.03 | 85 | 1014.2 |
| 20260904094044 | 66 | 288 | 6.0 | 14.0 | 0.00 | 0.03 | 0.03 | 85 | 1014.4 |
| 20260904093548 | 66 | 297 | 5.0 | 14.0 | 0.00 | 0.03 | 0.03 | 86 | 1014.3 |
| 20260904093109 | 66 | 286 | 4.0 | 10.0 | 0.00 | 0.03 | 0.03 | 86 | 1014.3 |
| 20260904092543 | 66 | 288 | 4.0 | 10.0 | 0.00 | 0.03 | 0.03 | 87 | 1014.3 |
| 20260904092046 | 65 | 309 | 3.0 | 12.0 | 0.00 | 0.03 | 0.03 | 87 | 1014.1 |
| 20260904091557 | 65 | 247 | 5.0 | 16.0 | 0.00 | 0.03 | 0.03 | 87 | 1014.2 |
| 20260904091042 | 65 | 301 | 6.0 | 16.0 | 0.00 | 0.03 | 0.03 | 87 | 1014.2 |
| 20260904090543 | 65 | 216 | 7.0 | 13.0 | 0.00 | 0.03 | 0.03 | 87 | 1014.2 |
| 20260904090058 | 65 | 290 | 7.0 | 13.0 | 0.00 | 0.03 | 0.03 | 87 | 1014.4 |
| 20260904085543 | 65 | 251 | 5.0 | 18.0 | 0.00 | 0.03 | 0.03 | 88 | 1014.4 |
| 20260904085043 | 65 | 228 | 5.0 | 18.0 | 0.00 | 0.03 | 0.03 | 89 | 1014.3 |
| 20260904084601 | 64 | 254 | 7.0 | 16.0 | 0.00 | 0.03 | 0.03 | 89 | 1014.2 |
| 20260904084045 | 64 | 301 | 6.0 | 16.0 | 0.00 | 0.03 | 0.03 | 90 | 1013.9 |
| 20260904083544 | 64 | 222 | 4.0 | 12.0 | 0.00 | 0.03 | 0.03 | 92 | 1013.8 |
| 20260904083100 | 64 | 227 | 5.0 | 12.0 | 0.00 | 0.03 | 0.03 | 92 | 1013.7 |
| 20260904082543 | 64 | 272 | 2.0 | 8.0 | 0.00 | 0.03 | 0.03 | 92 | 1013.7 |
| 20260904082043 | 64 | 226 | 3.0 | 11.0 | 0.02 | 0.03 | 0.03 | 92 | 1013.7 |
| 20260904081556 | 64 | 282 | 6.0 | 11.0 | 0.03 | 0.03 | 0.03 | 92 | 1013.8 |
| 20260904081043 | 64 | 292 | 4.0 | 13.0 | 0.03 | 0.03 | 0.03 | 92 | 1013.7 |
| 20260904080543 | 63 | 281 | 5.0 | 13.0 | 0.03 | 0.03 | 0.03 | 92 | 1013.6 |
| 20260904080104 | 63 | 306 | 7.0 | 13.0 | 0.03 | 0.03 | 0.03 | 92 | 1013.7 |
| 20260904075543 | 63 | 299 | 6.0 | 15.0 | 0.03 | 0.03 | 0.03 | 92 | 1013.6 |
| 20260904075043 | 63 | 314 | 8.0 | 15.0 | 0.03 | 0.03 | 0.03 | 92 | 1013.5 |
| 20260904074601 | 63 | 301 | 8.0 | 19.0 | 0.03 | 0.03 | 0.03 | 92 | 1013.4 |
| 20260904074043 | 63 | 326 | 7.0 | 19.0 | 0.03 | 0.03 | 0.03 | 92 | 1013.5 |
| 20260904073543 | 63 | 334 | 9.0 | 24.0 | 0.03 | 0.03 | 0.03 | 92 | 1013.4 |
| 20260904073100 | 64 | 331 | 13.0 | 24.0 | 0.03 | 0.03 | 0.03 | 91 | 1013.4 |
| 20260904072544 | 66 | 318 | 10.0 | 23.0 | 0.01 | 0.01 | 0.01 | 90 | 1013.4 |
| 20260904072043 | 67 | 264 | 5.0 | 17.0 | 0.00 | 0.00 | 0.00 | 92 | 1012.8 |
| 20260904071606 | 67 | 252 | 8.0 | 17.0 | 0.00 | 0.00 | 0.00 | 91 | 1012.6 |
| 20260904071043 | 67 | 246 | 4.0 | 18.0 | 0.00 | 0.00 | 0.00 | 91 | 1012.4 |
| 20260904070544 | 67 | 225 | 7.0 | 18.0 | 0.00 | 0.00 | 0.00 | 90 | 1012.2 |
| 20260904070111 | 67 | 225 | 6.0 | 16.0 | 0.00 | 0.00 | 0.00 | 90 | 1012.0 |
| 20260904065542 | 67 | 196 | 8.0 | 16.0 | 0.00 | 0.00 | 0.00 | 90 | 1012.0 |
| 20260904065042 | 67 | 196 | 6.0 | 14.0 | 0.00 | 0.00 | 0.00 | 90 | 1012.0 |
| 20260904064600 | 67 | 236 | 5.0 | 16.0 | 0.00 | 0.00 | 0.00 | 90 | 1012.0 |
| 20260904064042 | 67 | 211 | 7.0 | 18.0 | 0.00 | 0.00 | 0.00 | 90 | 1012.1 |
| 20260904063542 | 67 | 207 | 7.0 | 18.0 | 0.00 | 0.00 | 0.00 | 90 | 1012.0 |
| 20260904063059 | 67 | 226 | 7.0 | 18.0 | 0.00 | 0.00 | 0.00 | 89 | 1012.0 |
| 20260904062542 | 67 | 238 | 8.0 | 20.0 | 0.00 | 0.00 | 0.00 | 88 | 1012.1 |
| 20260904062042 | 68 | 200 | 11.0 | 20.0 | 0.00 | 0.00 | 0.00 | 87 | 1012.0 |
| 20260904061605 | 68 | 274 | 5.0 | 18.0 | 0.00 | 0.00 | 0.00 | 86 | 1012.0 |
| 20260904061043 | 68 | 215 | 6.0 | 18.0 | 0.00 | 0.00 | 0.00 | 86 | 1012.0 |
| 20260904060552 | 68 | 207 | 10.0 | 18.0 | 0.00 | 0.00 | 0.00 | 85 | 1012.1 |
| 20260904060104 | 68 | 209 | 8.0 | 18.0 | 0.00 | 0.00 | 0.00 | 85 | 1012.1 |
| 20260904055543 | 68 | 196 | 8.0 | 17.0 | 0.00 | 0.00 | 0.00 | 86 | 1011.9 |
| 20260904055043 | 68 | 188 | 8.0 | 18.0 | 0.00 | 0.00 | 0.00 | 86 | 1012.1 |
| 20260904054602 | 68 | 239 | 9.0 | 18.0 | 0.00 | 0.00 | 0.00 | 86 | 1012.0 |
| 20260904054042 | 68 | 216 | 8.0 | 19.0 | 0.00 | 0.00 | 0.00 | 86 | 1012.1 |
| 20260904053543 | 68 | 245 | 8.0 | 19.0 | 0.00 | 0.00 | 0.00 | 86 | 1012.1 |
| 20260904053142 | 68 | 241 | 6.0 | 22.0 | 0.00 | 0.00 | 0.00 | 87 | 1012.1 |
| 20260904052544 | 68 | 169 | 6.0 | 22.0 | 0.00 | 0.00 | 0.00 | 86 | 1012.2 |
| 20260904052048 | 68 | 216 | 7.0 | 21.0 | 0.00 | 0.00 | 0.00 | 87 | 1012.2 |
| 20260904051604 | 68 | 200 | 8.0 | 19.0 | 0.00 | 0.00 | 0.00 | 87 | 1012.3 |
| 20260904051044 | 68 | 206 | 6.0 | 19.0 | 0.00 | 0.00 | 0.00 | 87 | 1012.3 |
| 20260904050543 | 68 | 200 | 7.0 | 19.0 | 0.00 | 0.00 | 0.00 | 87 | 1012.3 |
| 20260904045544 | 68 | 187 | 9.0 | 18.0 | 0.00 | 0.00 | 0.00 | 87 | 1012.5 |
| 20260904045043 | 68 | 214 | 4.0 | 16.0 | 0.00 | 0.00 | 0.00 | 87 | 1012.5 |
| 20260904044608 | 68 | 222 | 6.0 | 17.0 | 0.00 | 0.00 | 0.00 | 87 | 1012.3 |
| 20260904044043 | 68 | 207 | 7.0 | 17.0 | 0.00 | 0.00 | 0.00 | 87 | 1012.3 |
| 20260904043543 | 68 | 225 | 7.0 | 14.0 | 0.00 | 0.00 | 0.00 | 87 | 1012.5 |
| 20260904043103 | 68 | 209 | 6.0 | 18.0 | 0.00 | 0.00 | 0.00 | 87 | 1012.6 |
| 20260904042543 | 68 | 205 | 8.0 | 18.0 | 0.00 | 0.00 | 0.00 | 87 | 1012.7 |
| 20260904042043 | 68 | 180 | 9.0 | 21.0 | 0.00 | 0.00 | 0.00 | 88 | 1012.6 |
| 20260904041604 | 68 | 198 | 8.0 | 24.0 | 0.00 | 0.00 | 0.00 | 88 | 1012.6 |
| 20260904041043 | 68 | 227 | 8.0 | 24.0 | 0.00 | 0.00 | 0.00 | 88 | 1012.8 |
| 20260904040543 | 68 | 229 | 7.0 | 17.0 | 0.00 | 0.00 | 0.00 | 88 | 1013.0 |
| 20260904040104 | 68 | 235 | 6.0 | 17.0 | 0.00 | 0.00 | 0.00 | 88 | 1013.0 |
| 20260904035543 | 68 | 198 | 6.0 | 15.0 | 0.00 | 0.00 | 0.00 | 88 | 1013.1 |
| 20260904035042 | 68 | 188 | 6.0 | 17.0 | 0.00 | 0.00 | 0.00 | 88 | 1013.2 |
| 20260904034606 | 68 | 234 | 6.0 | 17.0 | 0.00 | 0.00 | 0.00 | 88 | 1013.1 |
| 20260904034044 | 68 | 249 | 8.0 | 16.0 | 0.00 | 0.00 | 0.00 | 87 | 1013.2 |
| 20260904033544 | 68 | 187 | 6.0 | 16.0 | 0.00 | 0.00 | 0.00 | 87 | 1013.1 |
| 20260904033117 | 68 | 158 | 7.0 | 21.0 | 0.00 | 0.00 | 0.00 | 87 | 1013.0 |
| 20260904032543 | 68 | 234 | 8.0 | 21.0 | 0.00 | 0.00 | 0.00 | 87 | 1013.4 |
| 20260904032043 | 68 | 225 | 7.0 | 21.0 | 0.00 | 0.00 | 0.00 | 87 | 1013.5 |
| 20260904031604 | 68 | 190 | 6.0 | 16.0 | 0.00 | 0.00 | 0.00 | 86 | 1013.3 |
| 20260904031045 | 68 | 190 | 7.0 | 16.0 | 0.00 | 0.00 | 0.00 | 86 | 1013.6 |
| 20260904030543 | 68 | 271 | 8.0 | 17.0 | 0.00 | 0.00 | 0.00 | 86 | 1013.7 |
| 20260904030104 | 68 | 223 | 8.0 | 17.0 | 0.00 | 0.00 | 0.00 | 86 | 1013.8 |
| 20260904025543 | 68 | 229 | 6.0 | 18.0 | 0.00 | 0.00 | 0.00 | 86 | 1013.7 |
| 20260904025043 | 68 | 231 | 9.0 | 18.0 | 0.00 | 0.00 | 0.00 | 86 | 1013.8 |
| 20260904024608 | 68 | 260 | 4.0 | 17.0 | 0.00 | 0.00 | 0.00 | 86 | 1013.7 |
| 20260904024043 | 68 | 213 | 8.0 | 17.0 | 0.00 | 0.00 | 0.00 | 85 | 1013.8 |
| 20260904023544 | 68 | 187 | 6.0 | 19.0 | 0.00 | 0.00 | 0.00 | 85 | 1013.9 |
| 20260904023100 | 68 | 194 | 10.0 | 19.0 | 0.00 | 0.00 | 0.00 | 85 | 1014.0 |
| 20260904022542 | 68 | 213 | 6.0 | 18.0 | 0.00 | 0.00 | 0.00 | 85 | 1014.1 |
| 20260904022043 | 68 | 196 | 8.0 | 18.0 | 0.00 | 0.00 | 0.00 | 85 | 1014.1 |
| 20260904021557 | 68 | 181 | 7.0 | 17.0 | 0.00 | 0.00 | 0.00 | 85 | 1014.1 |
| 20260904021042 | 68 | 228 | 9.0 | 21.0 | 0.00 | 0.00 | 0.00 | 85 | 1014.2 |
| 20260904020542 | 68 | 248 | 9.0 | 21.0 | 0.00 | 0.00 | 0.00 | 85 | 1014.2 |
| 20260904020133 | 68 | 216 | 8.0 | 18.0 | 0.00 | 0.00 | 0.00 | 84 | 1014.3 |
| 20260904015541 | 68 | 180 | 4.0 | 20.0 | 0.00 | 0.00 | 0.00 | 84 | 1014.2 |
| 20260904015043 | 68 | 210 | 8.0 | 20.0 | 0.00 | 0.00 | 0.00 | 84 | 1014.5 |
| 20260904014648 | 68 | 226 | 7.0 | 16.0 | 0.00 | 0.00 | 0.00 | 84 | 1014.5 |
| 20260904014042 | 68 | 192 | 5.0 | 12.0 | 0.00 | 0.00 | 0.00 | 84 | 1014.6 |
| 20260904013542 | 68 | 206 | 6.0 | 17.0 | 0.00 | 0.00 | 0.00 | 84 | 1014.6 |
| 20260904013108 | 68 | 205 | 7.0 | 18.0 | 0.00 | 0.00 | 0.00 | 84 | 1014.6 |
| 20260904012542 | 68 | 219 | 7.0 | 18.0 | 0.00 | 0.00 | 0.00 | 84 | 1014.8 |
| 20260904012039 | 68 | 185 | 5.0 | 12.0 | 0.00 | 0.00 | 0.00 | 84 | 1014.8 |
| 20260904011607 | 68 | 198 | 5.0 | 18.0 | 0.00 | 0.00 | 0.00 | 84 | 1014.9 |
| 20260904011042 | 68 | 200 | 4.0 | 18.0 | 0.00 | 0.00 | 0.00 | 84 | 1015.0 |
| 20260904010540 | 68 | 220 | 5.0 | 18.0 | 0.00 | 0.00 | 0.00 | 84 | 1015.0 |
| 20260904010106 | 68 | 210 | 7.0 | 18.0 | 0.00 | 0.00 | 0.00 | 84 | 1015.0 |
| 20260904005543 | 68 | 199 | 6.0 | 17.0 | 0.00 | 0.00 | 0.00 | 84 | 1015.0 |
| 20260904005042 | 68 | 202 | 5.0 | 16.0 | 0.00 | 0.00 | 0.00 | 84 | 1015.0 |
| 20260904004606 | 68 | 196 | 5.0 | 17.0 | 0.00 | 0.00 | 0.00 | 84 | 1015.1 |
| 20260904004039 | 68 | 222 | 8.0 | 17.0 | 0.00 | 0.00 | 0.00 | 84 | 1015.2 |
| 20260904003541 | 68 | 213 | 6.0 | 17.0 | 0.00 | 0.00 | 0.00 | 84 | 1015.2 |
| 20260904003111 | 67 | 182 | 6.0 | 21.0 | 0.00 | 0.00 | 0.00 | 84 | 1015.2 |
| 20260904002545 | 67 | 174 | 7.0 | 21.0 | 0.00 | 0.00 | 0.00 | 85 | 1015.3 |
| 20260904002045 | 67 | 238 | 7.0 | 17.0 | 0.00 | 0.00 | 0.00 | 85 | 1015.4 |
| 20260904001557 | 67 | 197 | 6.0 | 17.0 | 0.00 | 0.00 | 0.00 | 85 | 1015.4 |
| 20260904001047 | 67 | 172 | 8.0 | 19.0 | 0.00 | 0.00 | 0.00 | 85 | 1015.3 |
| 20260904000544 | 67 | 219 | 8.0 | 19.0 | 0.00 | 0.00 | 0.00 | 85 | 1015.6 |
| 20260904000107 | 67 | 225 | 8.0 | 17.0 | 0.00 | 0.00 | 0.00 | 86 | 1015.8 |
| 20260903235542 | 67 | 271 | 6.0 | 16.0 | 0.00 | 0.00 | 0.00 | 86 | 1015.9 |
| 20260903235043 | 67 | 190 | 6.0 | 18.0 | 0.00 | 0.00 | 0.00 | 86 | 1016.0 |
| 20260903234613 | 67 | 214 | 6.0 | 18.0 | 0.00 | 0.00 | 0.00 | 86 | 1016.1 |
| 20260903234048 | 67 | 217 | 7.0 | 14.0 | 0.00 | 0.00 | 0.00 | 86 | 1016.1 |
| 20260903233545 | 67 | 225 | 8.0 | 14.0 | 0.00 | 0.00 | 0.00 | 86 | 1016.2 |
| 20260903233101 | 67 | 186 | 5.0 | 13.0 | 0.00 | 0.00 | 0.00 | 87 | 1016.1 |
| 20260903232544 | 67 | 213 | 4.0 | 12.0 | 0.00 | 0.00 | 0.00 | 87 | 1016.2 |
| 20260903232044 | 67 | 206 | 5.0 | 12.0 | 0.00 | 0.00 | 0.00 | 87 | 1016.2 |
| 20260903231601 | 67 | 207 | 4.0 | 15.0 | 0.00 | 0.00 | 0.00 | 87 | 1016.4 |
| 20260903231044 | 67 | 223 | 4.0 | 15.0 | 0.00 | 0.00 | 0.00 | 87 | 1016.4 |
| 20260903230544 | 67 | 180 | 5.0 | 16.0 | 0.00 | 0.00 | 0.00 | 87 | 1016.5 |
| 20260903230109 | 67 | 238 | 6.0 | 16.0 | 0.00 | 0.00 | 0.00 | 87 | 1016.6 |
| 20260903225545 | 67 | 231 | 5.0 | 16.0 | 0.00 | 0.00 | 0.00 | 87 | 1016.7 |
| 20260903225044 | 67 | 215 | 5.0 | 16.0 | 0.00 | 0.00 | 0.00 | 87 | 1016.9 |
| 20260903224558 | 67 | 230 | 6.0 | 17.0 | 0.00 | 0.00 | 0.00 | 87 | 1016.8 |
| 20260903224045 | 67 | 192 | 8.0 | 17.0 | 0.00 | 0.00 | 0.00 | 87 | 1016.8 |
| 20260903223544 | 67 | 236 | 7.0 | 14.0 | 0.00 | 0.00 | 0.00 | 87 | 1016.8 |
| 20260903223101 | 67 | 249 | 4.0 | 9.0 | 0.00 | 0.00 | 0.00 | 87 | 1016.9 |
| 20260903222544 | 67 | 238 | 4.0 | 9.0 | 0.00 | 0.00 | 0.00 | 87 | 1017.0 |
| 20260903222046 | 68 | 194 | 3.0 | 12.0 | 0.00 | 0.00 | 0.00 | 86 | 1016.9 |
| 20260903221603 | 68 | 219 | 5.0 | 12.0 | 0.00 | 0.00 | 0.00 | 86 | 1016.8 |